Location: Unspecified
(45.9570°N, 0.0000°E)
Time: 07:06:53
(UTC+00:00)

Tiros N - Visible Passes

Search period start: 05 April 2026 00:00
Search period end: 15 April 2026 00:00
Orbit: 819 x 836 km, 98.5° (Epoch: 29 March)

Date Brightness Start Highest point End Pass type
(mag) Time Alt. Az. Time Alt. Az. Time Alt. Az.
5 Apr 7.7 19:36:30 10° SW 19:40:42 23° W 19:44:54 10° NW visible
6 Apr 7.1 19:17:08 10° SSW 19:21:56 33° W 19:26:44 10° NNW visible
7 Apr 6.4 18:58:04 10° S 19:03:13 47° W 19:08:23 10° NNW visible
9 Apr 8.1 20:04:18 10° WSW 20:06:54 14° W 20:09:31 10° WNW visible
10 Apr 7.8 19:44:13 10° SW 19:48:03 20° W 19:51:55 10° NW visible
11 Apr 7.3 19:24:42 10° SSW 19:29:16 28° W 19:33:51 10° NW visible
12 Apr 6.7 19:05:31 10° SSW 19:10:31 40° W 19:15:34 10° NNW visible
14 Apr 8.2 20:12:38 10° WSW 20:14:18 11° W 20:15:57 10° WNW visible
